Nassau, Bahamas

2:58 AM EST on February 18, 2018 (GMT -0500)
Nassau International

Weather History for MYNN - April, 2013

Change the Weather History Date:

Tuesday, April 9, 2013

  Actual Average Record
Temperature  
Mean Temperature 76 °F -  
Max Temperature 84 °F 83 °F 89 °F (1998)
Min Temperature 69 °F 67 °F 55 °F (2009)
Cooling Degree Days 12    
Growing Degree Days 26 (Base 50)    
Moisture  
Dew Point 68 °F    
Average Humidity 73    
Maximum Humidity 89    
Minimum Humidity 51    
Precipitation  
Precipitation 0.00 in 0.10 in - ()
Sea Level Pressure  
Sea Level Pressure 30.11 in    
Wind  
Wind Speed 6 mph ()    
Max Wind Speed 14 mph    
Max Gust Speed -    
Visibility 6.9 miles    
Events      
Averages and records for this station are not official NWS values.
T = Trace of Precipitation, MM = Missing Value Source: Averaged Metar Reports

Daily Weather History Graph

Daily Weather History Graph

Search for Another Location

Airport or City:

Trip Planner

Search our weather history database for the weather conditions in past years. The results will help you decide how hot, cold, wet, or windy it might be!

Date:

Astronomy

Apr. 09, 2013 Rise Set
Actual Time 6:53 AM EDT 7:29 PM EDT
Civil Twilight 6:29 AM EDT 7:53 PM EDT
Nautical Twilight 6:02 AM EDT 8:20 PM EDT
Astronomical Twilight 5:35 AM EDT 8:47 PM EDT
Moon 6:11 AM EDT (4/9) 7:02 PM EDT (4/9)
Length of Visible Light 13h 23m
Length of Day
12h 36m
Waning Crescent, 1% of the Moon is Illuminated
Apr 9
Waning Crescent
Apr 10
New
Apr 18
First Quarter
Apr 25
Full
May 2
Last Quarter

Hourly Weather History & Observations

Time (EDT) Temp. Heat Index Dew Point Humidity Pressure Visibility Wind Dir Wind Speed Gust Speed Precip Events Conditions
12:00 AM 73.4 °F - 66.2 °F 78% 30.13 in 6.2 mi East 3.5 mph - N/A   Scattered Clouds
1:00 AM 73.4 °F - 66.2 °F 78% 30.11 in 6.2 mi East 5.8 mph - N/A   Mostly Cloudy
2:00 AM 74 °F - 66 °F 71% 30.10 in 9 mi East 4.6 mph - -   Mostly Cloudy
2:00 AM 73.4 °F - 66.2 °F 78% 30.10 in 6.2 mi East 4.6 mph - N/A   Mostly Cloudy
3:00 AM 73.4 °F - 66.2 °F 78% 30.07 in 6.2 mi East 4.6 mph - N/A   Scattered Clouds
4:00 AM 73.4 °F - 66.2 °F 78% 30.06 in 6.2 mi East 3.5 mph - N/A   Scattered Clouds
5:00 AM 73 °F - 66 °F 73% 30.07 in 9 mi East 3.5 mph - -   Mostly Cloudy
5:00 AM 73.4 °F - 66.2 °F 78% 30.07 in 6.2 mi East 3.5 mph - N/A   Scattered Clouds
6:00 AM 71.6 °F - 66.2 °F 83% 30.08 in 6.2 mi NE 3.5 mph - N/A   Scattered Clouds
7:00 AM 73.4 °F - 66.2 °F 78% 30.11 in 6.2 mi ENE 3.5 mph - N/A   Mostly Cloudy
8:00 AM 74 °F - 66 °F 70% 30.12 in 9 mi ENE 5.8 mph - -   Partly Cloudy
8:00 AM 75.2 °F - 66.2 °F 73% 30.11 in 6.2 mi ENE 5.8 mph - N/A   Mostly Cloudy
9:00 AM 75.2 °F - 66.2 °F 73% 30.14 in 6.2 mi East 5.8 mph - N/A   Mostly Cloudy
10:00 AM 75.2 °F - 66.2 °F 73% 30.16 in 6.2 mi ENE 9.2 mph - N/A   Mostly Cloudy
11:00 AM 79 °F - 65 °F 54% 30.18 in 9 mi East 10.4 mph - -   Scattered Clouds
11:00 AM 78.8 °F - 64.4 °F 61% 30.17 in 6.2 mi East 10.4 mph - N/A   Mostly Cloudy
12:00 PM 78.8 °F - 68.0 °F 69% 30.17 in 6.2 mi East 11.5 mph - N/A   Mostly Cloudy
1:00 PM 78.8 °F - 68.0 °F 69% 30.15 in 6.2 mi ENE 13.8 mph - N/A   Mostly Cloudy
2:00 PM 83 °F - 68 °F 51% 30.14 in 9 mi East 9.2 mph - -   Scattered Clouds
2:00 PM 82.4 °F 85.4 °F 68.0 °F 62% 30.14 in 6.2 mi East 9.2 mph - N/A   Scattered Clouds
3:00 PM 80.6 °F 83.9 °F 69.8 °F 70% 30.11 in 6.2 mi East 8.1 mph - N/A   Scattered Clouds
4:00 PM 78.8 °F - 69.8 °F 74% 30.09 in 6.2 mi East 10.4 mph - N/A   Mostly Cloudy
5:00 PM 80 °F - 68 °F 58% 30.09 in 9 mi East 11.5 mph - -   Partly Cloudy
5:00 PM 78.8 °F - 68.0 °F 69% 30.09 in 6.2 mi East 11.5 mph - N/A   Mostly Cloudy
6:00 PM 77.0 °F - 69.8 °F 78% 30.09 in 6.2 mi East 9.2 mph - N/A   Mostly Cloudy
7:00 PM 77.0 °F - 69.8 °F 78% 30.08 in 6.2 mi East 8.1 mph - N/A   Mostly Cloudy
8:00 PM 76 °F - 69 °F 73% 30.11 in 9 mi East 9.2 mph - -   Mostly Cloudy
8:00 PM 77.0 °F - 69.8 °F 78% 30.10 in 6.2 mi East 9.2 mph - N/A   Mostly Cloudy
9:00 PM 75.2 °F - 69.8 °F 83% 30.10 in 6.2 mi East 8.1 mph - N/A   Mostly Cloudy
10:00 PM 73.4 °F - 69.8 °F 88% 30.11 in 6.2 mi East 5.8 mph - N/A   Scattered Clouds
11:00 PM 75 °F - 71 °F 83% 30.12 in 9 mi ENE 9.2 mph - -   Mostly Cloudy
11:00 PM 75.2 °F - 71.6 °F 89% 30.11 in 6.2 mi ENE 9.2 mph - N/A   Mostly Cloudy